Other Public Products
Issued by NWS Charleston, SC

Home | Current Version | Previous Version | Text Only | Print | Product List | Glossary On
Versions: 1 2 3 4 5 6 7 8 9 10 11 12 13 14 15 16 17 18 19 20 21 22 23 24 25 26 27 28 29 30 31 32 33 34 35 36 37 38 39 40 41 42 43 44 45 46 47 48 49 50
154
FPUS82 KCHS 230127
OPUCHS

TEST...KCHS/KSAV Gateway Observations...TEST
National Weather Service Charleston SC
900 PM EDT SAT JUL 22 2017

NOTE: "fair" indicates few or no clouds below 12,000 feet with no
significant weather and/or obstructions to visibility.

SCZ050-WAZ558-NCZ071-TXZ119-213-PAZ071-DCZ001-FLZ074-172-MI076-
NYZ176-178-MAZ016-IL014-TNZ027-NJZ106-GAZ044-MD014-230200-

...Gateway Observations for Charleston International...

CITY           SKY/WX    TMP DP  RH WIND       PRES   REMARKS
Chas Airport   CLEAR     81  73  76 S9        29.97R
Seattle        MOSUNNY   84  61  45 W10       30.09F
Charlotte      PTCLDY    88  70  55 SW8       29.92R HX  93
Dallas DFW     PTCLDY    96  68  39 S12       29.82R HX 101
Dallas Love    PTCLDY    95  69  42 SE17      29.83R HX 100
Philladelphia  CLOUDY    80  72  76 CALM      29.77R
Wash National  LGT RAIN  76  72  87 SW7       29.81R
Baltimore      CLOUDY    73  73 100 W6        29.79R
Miami          MOCLDY    85  74  69 SE8       30.06S HX  92
Detroit        MOCLDY    79  71  76 W7        29.77R
Newark         LGT RAIN  80  71  74 S6        29.77R
Laguardia      CLOUDY    82  67  60 S8        29.77R
J F K          CLOUDY    79  75  87 SE6       29.79R
Boston Logan   CLOUDY    78  65  63 S7        29.77F
Ft. Lauderdale CLOUDY    85  75  72 SE8       30.05S HX  93
Chicago O`Hare PTCLDY    81  69  67 E8        29.80R
Chicago Midway MOCLDY    81  69  67 E6        29.80R
Houston Bush   MOCLDY    78  73  84 SW5       29.91S
Houston Hobby  MOCLDY    87  74  64 S6        29.91S HX  95
Nashville      PTCLDY    90  72  55 SW5       29.90R HX  97
Atlanta        CLOUDY    80  72  76 CALM      29.99R

$$

GAZ044-118-TXZ119-213-NCZ071-DCZ001-MDZ014-506-PAZ021-071-NJZ106-
NYZ176-178-MAZ106-OHZ011-021-055-MIZ076-KYZ091-ILZ014-INZ047-
MNZ060-ONZ431-230200-

...Gateway Observations for Savannah International...

CITY           SKY/WX    TMP DP  RH WIND       PRES   REMARKS
Savannah Arpt  PTCLDY    84  72  67 S7        29.98R
Atlanta        CLOUDY    80  72  76 CALM      29.99R
Charlotte      PTCLDY    88  70  55 SW8       29.92R HX  93
Dallas DFW     PTCLDY    96  68  39 S12       29.82R HX 101
Houston Bush   MOCLDY    78  73  84 SW5       29.91S
Wash National  LGT RAIN  76  72  87 SW7       29.81R
Wash Dulles    TSTM      73  71  93 S3        29.80R
Baltimore      CLOUDY    73  73 100 W6        29.79R
Philadelphia   CLOUDY    80  72  76 CALM      29.77R
Newark         LGT RAIN  80  71  74 S6        29.77R
Laguardia      CLOUDY    82  67  60 S8        29.77R
J F K          CLOUDY    79  75  87 SE6       29.79R
Boston         CLOUDY    78  65  63 S7        29.77F
Pittsburg      MOCLDY    74  73  97 S3        29.82R
Akron          PTCLDY    79  72  79 W3        29.80S
Cleveland      MOCLDY    82  72  71 SW5       29.79R
Cincinnati     CLOUDY    78  76  93 W6        29.84S
Columbus       PTCLDY    78  72  81 CALM      29.81S
Detroit        MOCLDY    79  71  76 W7        29.77R
Chicago O`Hare PTCLDY    81  69  67 E8        29.80R
Minneapolis    PTCLDY    85  63  47 NW9       29.82R
Indianapolis   CLOUDY    83  73  72 N5        29.82R
Toronto Canada LGT RAIN  72  64  78 CALM      29.80S

$$




USA.gov is the U.S. government's official web portal to all federal, state and local government web resources and services.